[[{"header":{"parameterUnit":"m.s-1","parameterCategory":1,"la1":30.2991,"la2":30.254,"lo1":-89.0895,"lo2":-89.0444,"dy":0.0017,"dx":0.0017,"nx":28,"ny":28,"refTime":"2024-04-30T21:00:00:Z","depth":0,"parameterNumber":2,"parameterNumberName":"U-component_of_WINDS"},"data":[0,0,0,0,0,0,0,0,0,0,0,0,0,0,0,0,0,0,0,0,0,0,0,0,0,0,0,0,0,0,0,0,0,0,0,0,0,0,0,0,0,0,0,0,0,0,0,0,0,0,0,0,0,0,0,0,0,0,-2.043,-2.043,0,-2.0413,-2.0413,-2.0412,-2.0354,-2.0353,-2.0352,-2.0351,-2.0335,-2.0335,-2.0336,0,0,0,0,0,0,0,0,0,0,0,0,0,-2.0415,-2.0415,-2.043,-2.043,-2.043,-2.0413,-2.0413,-2.0412,-2.0355,-2.0353,-2.0351,-2.035,-2.0334,-2.0335,-2.0336,0,0,0,0,0,0,0,0,0,0,0,0,0,-2.0412,-2.0416,-2.043,-2.0399,-2.0396,-2.0413,-2.0413,-2.0412,-2.0355,-2.0353,-2.0351,-2.0349,-2.0334,-2.0335,-2.0336,-2.0383,0,0,-2.034,-2.034,0,0,0,0,0,0,0,0,-2.0412,-2.0413,-2.0404,-2.0401,-2.0398,-2.0384,-2.0401,-2.0403,-2.0355,-2.0371,-2.035,-2.0348,-2.0353,-2.0352,-2.0353,-2.0382,-2.0381,-2.034,-2.0341,-2.0341,-2.0342,0,0,0,0,0,0,0,-2.0413,-2.0413,-2.0423,-2.0403,-2.04,-2.0386,-2.0384,-2.0401,-2.0373,-2.0369,-2.0365,-2.0363,-2.0351,-2.0352,-2.0352,-2.0381,-2.034,-2.0341,-2.0342,-2.0342,-2.0448,-2.045,0,0,0,0,0,0,-2.0417,-2.0414,-2.0424,-2.0423,-2.04,-2.0388,-2.0385,-2.039,-2.0372,-2.0368,-2.0365,-2.0361,-2.0351,-2.0351,-2.0352,-2.0405,-2.0341,-2.0342,-2.0343,-2.0446,-2.0448,-2.0451,0,0,0,0,0,0,-2.0417,-2.0418,-2.0424,-2.0417,-2.0417,-2.039,-2.0397,-2.0391,-2.0392,-2.0369,-2.0364,-2.0372,-2.035,-2.035,-2.0375,-2.0403,-2.0343,-2.0344,-2.0443,-2.0447,-2.0449,-2.0512,0,0,0,0,0,0,-2.0417,-2.0419,-2.0436,-2.0418,-2.0417,-2.0448,-2.0398,-2.0392,-2.0394,-2.0389,-2.0374,-2.037,-2.0348,-2.0374,-2.0377,-2.0404,-2.0345,-2.0441,-2.0445,-2.0448,-2.0507,-2.0517,-2.0525,0,0,0,0,0,-2.0416,-2.0454,-2.0437,-2.0438,-2.0438,-2.045,-2.045,-2.0423,-2.0397,-2.0414,-2.0399,-2.0371,-2.04,-2.0377,-2.038,-2.0408,-2.0439,-2.0444,-2.0448,-2.0503,-2.0515,-2.0525,0,0,0,0,0,0,-2.0476,-2.0451,-2.0432,-2.0465,-2.046,-2.044,-2.046,-2.0436,-2.0439,-2.0433,-2.0401,-2.0398,-2.0428,-2.0421,-2.0395,-2.0452,-2.0415,-2.042,-2.0456,-2.0467,-2.0475,-2.0476,-2.0346,0,0,0,0,0,-2.0493,-2.0504,-2.0482,-2.0514,-2.0512,-2.0487,-2.0491,-2.0471,-2.0465,-2.0463,-2.045,-2.0446,-2.0454,-2.046,-2.0466,-2.0506,-2.0502,-2.0527,-2.0536,-2.0543,-2.0548,-2.0568,-2.0579,-2.0466,-2.0466,-2.0466,0,0,-2.0528,-2.0516,-2.0525,-2.0525,-2.0519,-2.0532,-2.0486,-2.0501,-2.0511,-2.0465,-2.0488,-2.0479,-2.0472,-2.0505,-2.0519,-2.05,-2.0578,-2.0549,-2.0555,-2.0556,-2.0574,-2.0585,-2.0595,-2.0469,-2.0469,-2.0468,0,0,-2.0599,-2.0591,-2.0616,-2.0611,-2.0602,-2.0585,-2.0592,-2.0576,-2.0568,-2.059,-2.0557,-2.0568,-2.0583,-2.0579,-2.0579,-2.065,-2.0624,-2.0653,-2.0699,-2.0719,-2.0728,-2.0736,-2.0761,-2.077,-2.0658,-2.0658,-2.0658,0,-2.0644,-2.0661,-2.0632,-2.065,-2.0651,-2.0611,-2.0636,-2.0633,-2.0627,-2.0629,-2.0608,-2.0626,-2.0618,-2.065,-2.0667,-2.0669,-2.0675,-2.0654,-2.0729,-2.0737,-2.0744,-2.0767,-2.0776,-2.0662,-2.0662,-2.0661,-2.0661,0,-2.0717,-2.0729,-2.0751,-2.0746,-2.0749,-2.0771,-2.0746,-2.0754,-2.0734,-2.072,-2.0744,-2.0733,-2.0737,-2.0743,-2.0724,-2.0772,-2.0761,-2.0735,-2.0697,-2.0758,-2.078,-2.0788,-2.0667,-2.0666,-2.0665,-2.0664,0,0,-2.0823,-2.0802,-2.081,-2.0807,-2.0795,-2.0805,-2.0826,-2.0829,-2.0836,-2.0834,-2.085,-2.0864,-2.084,-2.0841,-2.0821,-2.0839,-2.0895,-2.0811,-2.081,-2.0826,-2.0948,-2.0966,-2.0977,-2.0878,-2.088,-2.0881,-2.0948,0,-2.0889,-2.0922,-2.0897,-2.0934,-2.0946,-2.0908,-2.0926,-2.0921,-2.0909,-2.0917,-2.0904,-2.0914,-2.0882,-2.0882,-2.0899,-2.0885,-2.0919,-2.088,-2.0893,-2.0894,-2.0895,-2.0988,-2.1008,-2.1071,-2.0956,-2.0957,-2.0958,0,-2.097,-2.0971,-2.101,-2.0996,-2.1,-2.1016,-2.1017,-2.1026,-2.102,-2.101,-2.1011,-2.0986,-2.1006,-2.0969,-2.0996,-2.097,-2.0974,-2.0969,-2.0971,-2.097,-2.0929,-2.0989,-2.1091,-2.11,-2.0971,-2.097,-2.0969,0,-2.1044,-2.1055,-2.1079,-2.1078,-2.1062,-2.1075,-2.1069,-2.1061,-2.1064,-2.1066,-2.1068,-2.1072,-2.1074,-2.1078,-2.1056,-2.1032,-2.1086,-2.1047,-2.1078,-2.1079,-2.109,-2.1089,-2.1193,-2.1095,-2.1095,-2.1094,-2.1094,0,-2.112,-2.1144,-2.1111,-2.1126,-2.1153,-2.1125,-2.1153,-2.1143,-2.1137,-2.1149,-2.1118,-2.1131,-2.1101,-2.1111,-2.1094,-2.1119,-2.1121,-2.1113,-2.1108,-2.1115,-2.1116,-2.1117,-2.1111,-2.1097,-2.1096,-2.1096,-2.1095,0,-2.1205,-2.1184,-2.1208,-2.1191,-2.1188,-2.1208,-2.1194,-2.1208,-2.1194,-2.121,-2.1213,-2.1191,-2.1201,-2.118,-2.1188,-2.1176,-2.1211,-2.1199,-2.1213,-2.1209,-2.124,-2.1237,-2.1347,-2.1359,-2.1254,-2.1255,-2.1256,0,-2.1255,-2.1273,-2.1258,-2.1264,-2.126,-2.127,-2.1274,-2.1247,-2.1252,-2.1247,-2.1261,-2.1269,-2.1273,-2.1292,-2.1277,-2.1283,-2.1271,-2.1309,-2.1271,-2.1278,-2.1271,-2.1269,-2.1271,-2.1316,-2.1317,-2.1319,-2.1319,0,-2.1344,-2.1333,-2.1339,-2.1342,-2.1347,-2.1348,-2.1347,-2.1354,-2.1326,-2.1333,-2.1343,-2.1347,-2.1354,-2.1362,-2.1365,-2.1359,-2.1335,-2.1332,-2.1339,-2.1346,-2.1352,-2.1348,-2.1233,-2.1329,-2.1328,-2.1327,-2.1327,-2.1326,-2.1413,-2.1427,-2.1419,-2.1427,-2.1423,-2.1423,-2.1435,-2.1422,-2.143,-2.1434,-2.1418,-2.1431,-2.1426,-2.1426,-2.1424,-2.1434,-2.1417,-2.1428,-2.143,-2.1433,-2.1438,-2.1352,-2.1435,-2.1434,-2.1434,-2.1434,-2.1434,0,-2.15,-2.1494,-2.1501,-2.15,-2.1507,-2.1483,-2.1481,-2.1488,-2.15,-2.1497,-2.1502,-2.1513,-2.1521,-2.1507,-2.1513,-2.1524,-2.1513,-2.1527,-2.1525,-2.1524,-2.1453,-2.1446,-2.1535,-2.1535,-2.1535,-2.1535,-2.1535,-2.1535,-2.1547,-2.157,-2.1558,-2.1579,-2.1572,-2.1584,-2.1585,-2.1585,-2.1582,-2.1596,-2.1602,-2.1593,-2.1586,-2.1591,-2.1597,-2.1593,-2.1596,-2.1613,-2.1605,-2.1539,-2.1529,-2.152,-2.1513,-2.1615,-2.1615,-2.1675,-2.1676,-2.1676]},{"header":{"parameterUnit":"m.s-1","parameterCategory":1,"la1":30.2991,"la2":30.254,"lo1":-89.0895,"lo2":-89.0444,"dy":0.0017,"dx":0.0017,"nx":28,"ny":28,"refTime":"2024-04-30T21:00:00:Z","depth":0,"parameterNumber":3,"parameterNumberName":"V-component_of_WINDS"},"data":[0,0,0,0,0,0,0,0,0,0,0,0,0,0,0,0,0,0,0,0,0,0,0,0,0,0,0,0,0,0,0,0,0,0,0,0,0,0,0,0,0,0,0,0,0,0,0,0,0,0,0,0,0,0,0,0,0,0,2.4834,2.4834,0,2.4888,2.4888,2.4889,2.489,2.4889,2.4889,2.4888,2.4941,2.4943,2.4945,0,0,0,0,0,0,0,0,0,0,0,0,0,2.473,2.4732,2.4834,2.4834,2.4835,2.4888,2.4888,2.4889,2.489,2.4889,2.4888,2.4888,2.494,2.4942,2.4945,0,0,0,0,0,0,0,0,0,0,0,0,0,2.4779,2.4733,2.4834,2.4842,2.4843,2.4887,2.4888,2.4889,2.489,2.4889,2.4888,2.4887,2.4939,2.4942,2.4945,2.4984,0,0,2.4954,2.4956,0,0,0,0,0,0,0,0,2.4776,2.4783,2.484,2.4842,2.4843,2.4881,2.4871,2.4921,2.489,2.4872,2.4888,2.4887,2.4921,2.4926,2.4938,2.4986,2.4988,2.4955,2.4957,2.4958,2.4959,0,0,0,0,0,0,0,2.4773,2.478,2.4855,2.4841,2.4843,2.4843,2.4848,2.4881,2.4902,2.4874,2.4874,2.488,2.4922,2.4935,2.4939,2.4989,2.4955,2.4957,2.4959,2.496,2.5073,2.5074,0,0,0,0,0,0,2.4768,2.4777,2.4853,2.4857,2.4807,2.4845,2.4852,2.487,2.4901,2.4905,2.4881,2.488,2.493,2.4936,2.4941,2.4989,2.4958,2.4961,2.4962,2.5071,2.5073,2.5074,0,0,0,0,0,0,2.4766,2.4775,2.4851,2.4817,2.4827,2.4848,2.4868,2.4871,2.4885,2.4907,2.4911,2.4891,2.493,2.4937,2.4974,2.4991,2.4962,2.4965,2.507,2.5072,2.5073,2.5085,0,0,0,0,0,0,2.4763,2.4774,2.4789,2.4818,2.4829,2.4883,2.487,2.4873,2.489,2.4889,2.4917,2.4921,2.493,2.4969,2.4977,2.4995,2.4967,2.5069,2.5071,2.5073,2.5083,2.5087,2.509,0,0,0,0,0,2.4759,2.479,2.479,2.4799,2.4848,2.4884,2.489,2.4901,2.4891,2.4907,2.4921,2.492,2.4988,2.4973,2.4981,2.5001,2.5068,2.507,2.5073,2.5082,2.5086,2.509,0,0,0,0,0,0,2.4762,2.4793,2.4794,2.4835,2.4857,2.4884,2.4904,2.4905,2.493,2.4928,2.4939,2.4945,2.4982,2.4995,2.4977,2.504,2.5026,2.5031,2.503,2.5035,2.5038,2.5035,2.497,0,0,0,0,0,2.4767,2.4794,2.482,2.4854,2.4865,2.4882,2.4898,2.4905,2.4928,2.4937,2.4954,2.4976,2.5002,2.5019,2.5044,2.5085,2.5091,2.5102,2.5106,2.5109,2.5113,2.5136,2.5141,2.5083,2.5083,2.5083,0,0,2.4778,2.4799,2.4815,2.4855,2.4872,2.49,2.489,2.4919,2.494,2.4941,2.4977,2.499,2.5015,2.5054,2.5072,2.5066,2.513,2.5112,2.5114,2.5116,2.5139,2.5144,2.5149,2.5084,2.5084,2.5084,0,0,2.4813,2.4831,2.4862,2.488,2.4908,2.4919,2.4927,2.4954,2.4963,2.5,2.5002,2.5026,2.5071,2.5089,2.5104,2.5146,2.5146,2.5154,2.5172,2.5195,2.5199,2.5203,2.5219,2.5225,2.5158,2.5158,2.5158,0,2.4824,2.4866,2.4877,2.4907,2.4924,2.4927,2.4958,2.4975,2.5009,2.5021,2.5013,2.5071,2.5088,2.5131,2.5142,2.5154,2.5162,2.5151,2.5198,2.5202,2.5206,2.5221,2.5227,2.5159,2.5158,2.5158,2.5158,0,2.4877,2.4906,2.4928,2.4962,2.4981,2.5011,2.5027,2.5045,2.505,2.5062,2.51,2.512,2.515,2.5161,2.5165,2.5205,2.5201,2.5196,2.5182,2.5212,2.5227,2.5233,2.516,2.5159,2.5159,2.5159,0,0,2.4915,2.4956,2.4963,2.4979,2.501,2.5033,2.5063,2.5093,2.5109,2.5132,2.5158,2.5196,2.5192,2.5209,2.5215,2.5235,2.5268,2.5228,2.5228,2.5235,2.5315,2.5319,2.5325,2.5268,2.5269,2.527,2.5313,0,2.4954,2.5008,2.502,2.5067,2.5094,2.5098,2.5124,2.5146,2.5158,2.5183,2.5196,2.5223,2.5215,2.5226,2.5245,2.526,2.5284,2.5257,2.5292,2.5293,2.5286,2.5333,2.5337,2.5376,2.5318,2.5319,2.532,0,2.5006,2.5032,2.5082,2.511,2.5122,2.5146,2.5175,2.5198,2.5223,2.5231,2.525,2.5255,2.5286,2.5271,2.5314,2.5296,2.531,2.532,2.5322,2.5326,2.5309,2.5338,2.5389,2.5395,2.5329,2.5328,2.5327,0,2.5029,2.5077,2.5113,2.5126,2.516,2.5177,2.5191,2.5215,2.5233,2.5258,2.5269,2.5297,2.5313,2.5334,2.5346,2.5334,2.5389,2.5375,2.5396,2.5396,2.5408,2.5407,2.5462,2.5416,2.5416,2.5416,2.5416,0,2.5072,2.5102,2.5124,2.5147,2.5181,2.5194,2.5227,2.5242,2.5263,2.5288,2.5292,2.5315,2.5329,2.5355,2.5364,2.5399,2.5405,2.5412,2.5415,2.5412,2.5412,2.5423,2.542,2.5418,2.5417,2.5417,2.5417,0,2.5104,2.512,2.516,2.5189,2.5197,2.5221,2.5245,2.5267,2.528,2.5311,2.5319,2.5339,2.5369,2.5383,2.542,2.5426,2.5466,2.5466,2.5458,2.5459,2.548,2.5478,2.5544,2.5553,2.5501,2.5502,2.5502,0,2.513,2.5154,2.5186,2.5203,2.5219,2.5247,2.5265,2.5278,2.5297,2.5328,2.5346,2.5376,2.5401,2.5449,2.5466,2.5494,2.5495,2.5517,2.55,2.5497,2.5496,2.5495,2.5498,2.552,2.552,2.5521,2.5521,0,2.5175,2.5182,2.5209,2.5239,2.5261,2.5285,2.5309,2.5323,2.534,2.5361,2.5392,2.5412,2.545,2.548,2.5509,2.5524,2.5525,2.5526,2.5533,2.5531,2.5526,2.553,2.5467,2.5525,2.5524,2.5524,2.5524,2.5524,2.5206,2.5227,2.5254,2.5284,2.5303,2.5325,2.5347,2.5363,2.539,2.5423,2.5428,2.5462,2.5486,2.5526,2.5542,2.5568,2.5563,2.5572,2.5574,2.5577,2.5578,2.5521,2.5573,2.5573,2.5573,2.5573,2.5573,0,2.5252,2.5269,2.5296,2.533,2.5354,2.5354,2.538,2.54,2.5429,2.5452,2.5477,2.5513,2.5543,2.5563,2.5592,2.5609,2.5611,2.5617,2.5616,2.5619,2.5581,2.5572,2.5615,2.5615,2.5615,2.5615,2.5615,2.5615,2.5278,2.5316,2.5326,2.5373,2.5389,2.5423,2.5438,2.5458,2.5477,2.5517,2.5542,2.5555,2.5577,2.5609,2.5636,2.5641,2.5652,2.5658,2.5663,2.5626,2.5622,2.5618,2.561,2.566,2.566,2.5699,2.57,2.57]}]]